| time (UTC) | temp C | wind direction | speed KPH | gust KPH | rain 1hr cm | rain 24hr cm | rain mn cm | humidity % | barometer mb |
| 20260904042019 | 20 | 332 | 0.0 | 0.0 | 0.00 | 0.00 | 0.00 | 99 | 1015.1 |
| 20260904041509 | 20 | 332 | 0.0 | 0.0 | 0.00 | 0.00 | 0.00 | 99 | 1015.3 |
| 20260904041005 | 21 | 339 | 0.0 | 0.0 | 0.00 | 0.00 | 0.00 | 99 | 1015.2 |
| 20260904040459 | 21 | 345 | 0.0 | 0.0 | 0.00 | 0.00 | 0.00 | 99 | 1015.2 |
| 20260904035955 | 21 | 338 | 0.0 | 0.0 | 0.00 | 1.04 | 1.04 | 99 | 1015.2 |
| 20260904035451 | 21 | 330 | 0.0 | 0.0 | 0.00 | 1.04 | 1.04 | 99 | 1015.4 |
| 20260904034950 | 21 | 330 | 0.0 | 0.0 | 0.00 | 1.04 | 1.04 | 99 | 1015.3 |
| 20260904034445 | 21 | 332 | 0.0 | 0.0 | 0.00 | 1.04 | 1.04 | 99 | 1015.3 |
| 20260904033941 | 21 | 330 | 0.0 | 0.0 | 0.00 | 1.04 | 1.04 | 99 | 1015.1 |
| 20260904033437 | 21 | 336 | 0.0 | 0.0 | 0.00 | 1.04 | 1.04 | 99 | 1015.0 |
| 20260904032933 | 21 | 345 | 0.0 | 0.0 | 0.00 | 1.04 | 1.04 | 99 | 1015.1 |
| 20260904032428 | 21 | 341 | 0.0 | 0.0 | 0.00 | 1.04 | 1.04 | 99 | 1015.2 |
| 20260904031928 | 21 | 349 | 0.0 | 0.0 | 0.00 | 1.04 | 1.04 | 99 | 1015.1 |
| 20260904031423 | 21 | 335 | 0.0 | 0.0 | 0.00 | 1.04 | 1.04 | 99 | 1015.5 |
| 20260904030919 | 21 | 347 | 0.0 | 0.0 | 0.00 | 1.04 | 1.04 | 99 | 1015.5 |
| 20260904030419 | 21 | 331 | 0.0 | 0.0 | 0.00 | 1.04 | 1.04 | 99 | 1015.6 |
| 20260904025915 | 21 | 330 | 0.0 | 0.0 | 0.00 | 1.04 | 1.04 | 99 | 1015.6 |
| 20260904025411 | 21 | 326 | 0.0 | 0.0 | 0.00 | 1.04 | 1.04 | 99 | 1015.8 |
| 20260904024905 | 21 | 325 | 0.0 | 0.0 | 0.00 | 1.04 | 1.04 | 99 | 1015.8 |
| 20260904024400 | 21 | 325 | 0.0 | 0.0 | 0.00 | 1.04 | 1.04 | 99 | 1015.9 |
| 20260904023856 | 21 | 325 | 0.0 | 0.0 | 0.00 | 1.04 | 1.04 | 99 | 1015.9 |
| 20260904023352 | 21 | 325 | 0.0 | 0.0 | 0.00 | 1.04 | 1.04 | 99 | 1016.0 |
| 20260904022851 | 21 | 329 | 0.0 | 0.0 | 0.00 | 1.04 | 1.04 | 99 | 1015.6 |
| 20260904022348 | 21 | 327 | 0.0 | 0.0 | 0.00 | 1.04 | 1.04 | 99 | 1015.7 |
| 20260904021844 | 21 | 330 | 0.0 | 0.0 | 0.00 | 1.04 | 1.04 | 99 | 1015.5 |
| 20260904021339 | 21 | 331 | 0.0 | 0.0 | 0.00 | 1.04 | 1.04 | 99 | 1015.8 |
| 20260904020835 | 21 | 330 | 0.0 | 0.0 | 0.00 | 1.04 | 1.04 | 99 | 1015.9 |
| 20260904020329 | 21 | 326 | 0.0 | 0.0 | 0.00 | 1.04 | 1.04 | 99 | 1016.0 |
| 20260904015828 | 21 | 326 | 0.0 | 0.0 | 0.00 | 1.04 | 1.04 | 99 | 1016.0 |
| 20260904015324 | 21 | 326 | 0.0 | 0.0 | 0.00 | 1.04 | 1.04 | 99 | 1016.2 |
| 20260904014822 | 21 | 326 | 0.0 | 0.0 | 0.00 | 1.04 | 1.04 | 99 | 1016.1 |
| 20260904014317 | 21 | 327 | 0.0 | 0.0 | 0.00 | 1.04 | 1.04 | 99 | 1016.1 |
| 20260904013813 | 21 | 327 | 0.0 | 0.0 | 0.00 | 1.04 | 1.04 | 99 | 1016.0 |
| 20260904013309 | 21 | 325 | 0.0 | 0.0 | 0.00 | 1.04 | 1.04 | 99 | 1016.1 |
| 20260904012805 | 21 | 330 | 0.0 | 0.0 | 0.00 | 1.04 | 1.04 | 99 | 1016.1 |
| 20260904012259 | 21 | 346 | 0.0 | 0.0 | 0.00 | 1.04 | 1.04 | 99 | 1016.0 |
| 20260904011758 | 21 | 342 | 0.0 | 0.0 | 0.00 | 1.04 | 1.04 | 99 | 1016.0 |
| 20260904011254 | 21 | 328 | 0.0 | 0.0 | 0.00 | 1.04 | 1.04 | 99 | 1015.8 |
| 20260904010754 | 21 | 328 | 0.0 | 0.0 | 0.00 | 1.04 | 1.04 | 99 | 1016.1 |
| 20260904010250 | 21 | 328 | 0.0 | 0.0 | 0.00 | 1.04 | 1.04 | 99 | 1016.1 |
| 20260904005745 | 21 | 332 | 0.0 | 0.0 | 0.00 | 1.04 | 1.04 | 99 | 1015.9 |
| 20260904005241 | 21 | 332 | 0.0 | 0.0 | 0.00 | 1.04 | 1.04 | 99 | 1016.2 |
| 20260904004736 | 21 | 333 | 0.0 | 0.0 | 0.00 | 1.04 | 1.04 | 99 | 1016.1 |
| 20260904004232 | 21 | 334 | 0.0 | 0.0 | 0.00 | 1.04 | 1.04 | 99 | 1015.9 |
| 20260904003726 | 21 | 336 | 0.0 | 0.0 | 0.00 | 1.04 | 1.04 | 99 | 1015.9 |
| 20260904003222 | 21 | 330 | 0.0 | 0.0 | 0.00 | 1.04 | 1.04 | 99 | 1016.0 |
| 20260904002718 | 21 | 330 | 0.0 | 0.0 | 0.00 | 1.04 | 1.04 | 99 | 1015.9 |
| 20260904002214 | 21 | 330 | 0.0 | 0.0 | 0.00 | 1.04 | 1.04 | 99 | 1015.9 |
| 20260904001709 | 21 | 326 | 0.0 | 0.0 | 0.00 | 1.04 | 1.04 | 99 | 1015.9 |
| 20260904001208 | 21 | 326 | 0.0 | 0.0 | 0.00 | 1.04 | 1.04 | 99 | 1015.9 |
| 20260904000703 | 22 | 333 | 0.0 | 0.0 | 0.00 | 1.04 | 1.04 | 99 | 1015.8 |
| 20260904000158 | 22 | 333 | 0.0 | 0.0 | 0.00 | 1.04 | 1.04 | 99 | 1015.9 |
| 20260903235657 | 22 | 327 | 0.0 | 0.0 | 0.00 | 1.04 | 1.04 | 99 | 1015.9 |
| 20260903235154 | 22 | 330 | 0.0 | 0.0 | 0.00 | 1.04 | 1.04 | 99 | 1015.6 |
| 20260903234648 | 22 | 329 | 0.0 | 0.0 | 0.00 | 1.04 | 1.04 | 99 | 1015.3 |
| 20260903234144 | 22 | 336 | 0.0 | 0.0 | 0.00 | 1.04 | 1.04 | 99 | 1015.4 |
| 20260903233640 | 22 | 328 | 0.0 | 0.0 | 0.00 | 1.04 | 1.04 | 99 | 1015.5 |
| 20260903233137 | 22 | 330 | 0.0 | 0.0 | 0.00 | 1.04 | 1.04 | 98 | 1015.4 |
| 20260903232630 | 22 | 329 | 0.0 | 0.0 | 0.00 | 1.04 | 1.04 | 98 | 1015.8 |
| 20260903232126 | 22 | 327 | 0.0 | 0.0 | 0.00 | 1.04 | 1.04 | 98 | 1015.5 |
| 20260903231615 | 22 | 337 | 0.0 | 0.0 | 0.00 | 1.04 | 1.04 | 98 | 1015.3 |
| 20260903231114 | 22 | 337 | 0.0 | 0.0 | 0.00 | 1.04 | 1.04 | 97 | 1015.2 |
| 20260903230610 | 22 | 337 | 0.0 | 0.0 | 0.00 | 1.04 | 1.04 | 97 | 1015.4 |
| 20260903230109 | 22 | 341 | 0.0 | 0.0 | 0.00 | 1.04 | 1.04 | 97 | 1015.5 |
| 20260903225607 | 23 | 336 | 0.0 | 0.0 | 0.00 | 1.04 | 1.04 | 96 | 1015.4 |
| 20260903225103 | 23 | 337 | 0.0 | 0.0 | 0.00 | 1.04 | 1.04 | 96 | 1015.3 |
| 20260903224559 | 23 | 329 | 0.0 | 0.0 | 0.00 | 1.04 | 1.04 | 96 | 1015.4 |
| 20260903224055 | 23 | 341 | 0.0 | 0.0 | 0.00 | 1.04 | 1.04 | 96 | 1015.4 |
| 20260903223555 | 23 | 330 | 0.0 | 0.0 | 0.00 | 1.04 | 1.04 | 95 | 1015.5 |
| 20260903223053 | 23 | 351 | 0.0 | 0.0 | 0.00 | 1.04 | 1.04 | 95 | 1015.4 |
| 20260903222548 | 23 | 337 | 0.0 | 0.0 | 0.00 | 1.04 | 1.04 | 95 | 1015.4 |
| 20260903222047 | 24 | 336 | 0.0 | 0.0 | 0.00 | 1.04 | 1.04 | 94 | 1015.5 |
| 20260903221543 | 24 | 340 | 0.0 | 0.0 | 0.00 | 1.04 | 1.04 | 93 | 1015.5 |
| 20260903221040 | 24 | 342 | 0.0 | 0.0 | 0.00 | 1.04 | 1.04 | 93 | 1015.8 |
| 20260903220539 | 24 | 346 | 0.0 | 0.0 | 0.00 | 1.04 | 1.04 | 93 | 1015.7 |
| 20260903220034 | 24 | 333 | 0.0 | 0.0 | 0.00 | 1.04 | 1.04 | 93 | 1015.6 |
| 20260903215533 | 24 | 330 | 0.0 | 0.0 | 0.00 | 1.04 | 1.04 | 91 | 1015.6 |
| 20260903215033 | 25 | 327 | 0.0 | 0.0 | 0.00 | 1.04 | 1.04 | 90 | 1015.7 |
| 20260903214532 | 25 | 314 | 0.0 | 0.0 | 0.00 | 1.04 | 1.04 | 88 | 1015.6 |
| 20260903214028 | 25 | 312 | 0.0 | 0.0 | 0.00 | 1.04 | 1.04 | 85 | 1015.8 |
| 20260903213523 | 25 | 316 | 0.0 | 0.0 | 0.00 | 1.04 | 1.04 | 85 | 1015.6 |
| 20260903213019 | 25 | 323 | 0.0 | 0.0 | 0.00 | 1.04 | 1.04 | 84 | 1015.6 |
| 20260903212514 | 25 | 312 | 0.0 | 0.0 | 0.00 | 1.04 | 1.04 | 84 | 1015.3 |
| 20260903212015 | 25 | 300 | 1.6 | 3.2 | 0.00 | 1.04 | 1.04 | 83 | 1015.3 |
| 20260903211510 | 26 | 309 | 0.0 | 1.6 | 0.00 | 1.04 | 1.04 | 83 | 1015.3 |
| 20260903211006 | 26 | 310 | 0.0 | 0.0 | 0.00 | 1.04 | 1.04 | 84 | 1015.4 |
| 20260903210501 | 26 | 312 | 0.0 | 0.0 | 0.00 | 1.04 | 1.04 | 83 | 1015.3 |
| 20260903205956 | 26 | 309 | 1.6 | 1.6 | 0.00 | 1.04 | 1.04 | 84 | 1015.4 |
| 20260903205450 | 26 | 311 | 1.6 | 1.6 | 0.00 | 1.04 | 1.04 | 84 | 1015.4 |
| 20260903204944 | 26 | 299 | 1.6 | 3.2 | 0.00 | 1.04 | 1.04 | 82 | 1015.5 |
| 20260903204441 | 26 | 307 | 1.6 | 1.6 | 0.00 | 1.04 | 1.04 | 86 | 1015.2 |
| 20260903203936 | 26 | 314 | 0.0 | 1.6 | 0.00 | 1.04 | 1.04 | 83 | 1015.4 |
| 20260903203431 | 25 | 308 | 1.6 | 1.6 | 0.00 | 1.04 | 1.04 | 89 | 1015.6 |
| 20260903202925 | 25 | 324 | 0.0 | 0.0 | 0.00 | 1.04 | 1.04 | 87 | 1015.4 |
| 20260903202421 | 25 | 312 | 0.0 | 0.0 | 0.00 | 1.04 | 1.04 | 87 | 1015.5 |
| 20260903201920 | 26 | 316 | 0.0 | 0.0 | 0.00 | 1.04 | 1.04 | 88 | 1015.6 |
| 20260903201411 | 27 | 307 | 1.6 | 1.6 | 0.00 | 1.04 | 1.04 | 84 | 1015.8 |
| 20260903200910 | 27 | 296 | 0.0 | 0.0 | 0.00 | 1.04 | 1.04 | 84 | 1015.6 |
| 20260903200405 | 26 | 322 | 0.0 | 0.0 | 0.00 | 1.04 | 1.04 | 84 | 1015.6 |
| 20260903195900 | 25 | 314 | 0.0 | 0.0 | 0.00 | 1.04 | 1.04 | 90 | 1015.6 |
| 20260903195356 | 25 | 313 | 0.0 | 0.0 | 0.00 | 1.04 | 1.04 | 88 | 1015.7 |
| 20260903194850 | 25 | 312 | 0.0 | 0.0 | 0.00 | 1.04 | 1.04 | 89 | 1016.0 |
| 20260903194346 | 25 | 319 | 0.0 | 0.0 | 0.00 | 1.04 | 1.04 | 89 | 1015.7 |
| 20260903193841 | 25 | 326 | 0.0 | 0.0 | 0.00 | 1.04 | 1.04 | 88 | 1015.4 |
| 20260903193338 | 25 | 318 | 0.0 | 0.0 | 0.00 | 1.04 | 1.04 | 89 | 1015.9 |
| 20260903192833 | 25 | 324 | 0.0 | 0.0 | 0.00 | 1.04 | 1.04 | 91 | 1015.8 |
| 20260903192328 | 25 | 324 | 0.0 | 0.0 | 0.00 | 1.04 | 1.04 | 89 | 1016.2 |
| 20260903191825 | 25 | 316 | 0.0 | 0.0 | 0.00 | 1.04 | 1.04 | 87 | 1015.7 |
| 20260903191320 | 25 | 315 | 0.0 | 0.0 | 0.00 | 1.04 | 1.04 | 87 | 1016.0 |
| 20260903190819 | 25 | 311 | 0.0 | 0.0 | 0.00 | 1.04 | 1.04 | 86 | 1016.1 |
| 20260903190314 | 25 | 312 | 1.6 | 1.6 | 0.00 | 1.04 | 1.04 | 86 | 1016.0 |
| 20260903185808 | 25 | 309 | 0.0 | 0.0 | 0.00 | 1.04 | 1.04 | 87 | 1016.2 |
| 20260903185306 | 25 | 299 | 1.6 | 1.6 | 0.00 | 1.04 | 1.04 | 86 | 1016.2 |
| 20260903184759 | 25 | 310 | 0.0 | 0.0 | 0.00 | 1.04 | 1.04 | 87 | 1016.3 |
| 20260903184255 | 25 | 316 | 0.0 | 1.6 | 0.00 | 1.04 | 1.04 | 87 | 1016.1 |
| 20260903183744 | 25 | 307 | 0.0 | 1.6 | 0.00 | 1.04 | 1.04 | 86 | 1016.3 |
| 20260903183239 | 25 | 306 | 1.6 | 1.6 | 0.00 | 1.04 | 1.04 | 86 | 1016.3 |
| 20260903182738 | 25 | 316 | 0.0 | 0.0 | 0.00 | 1.04 | 1.04 | 87 | 1016.4 |
| 20260903182233 | 25 | 316 | 0.0 | 0.0 | 0.00 | 1.04 | 1.04 | 88 | 1016.3 |
| 20260903181732 | 25 | 311 | 1.6 | 1.6 | 0.00 | 1.04 | 1.04 | 86 | 1016.0 |
| 20260903181227 | 25 | 312 | 0.0 | 1.6 | 0.00 | 1.04 | 1.04 | 87 | 1016.2 |
| 20260903180722 | 25 | 303 | 1.6 | 1.6 | 0.00 | 1.04 | 1.04 | 87 | 1016.2 |
| 20260903180221 | 25 | 314 | 0.0 | 0.0 | 0.00 | 1.04 | 1.04 | 87 | 1016.4 |
| 20260903175721 | 25 | 310 | 1.6 | 1.6 | 0.00 | 1.04 | 1.04 | 87 | 1016.6 |
| 20260903175214 | 25 | 297 | 0.0 | 0.0 | 0.00 | 1.04 | 1.04 | 87 | 1016.2 |
| 20260903174708 | 25 | 305 | 1.6 | 1.6 | 0.00 | 1.04 | 1.04 | 86 | 1016.3 |
| 20260903174204 | 25 | 304 | 1.6 | 1.6 | 0.00 | 1.04 | 1.04 | 88 | 1016.4 |
| 20260903173659 | 25 | 303 | 3.2 | 3.2 | 0.00 | 1.04 | 1.04 | 87 | 1016.6 |
| 20260903173155 | 25 | 294 | 1.6 | 1.6 | 0.00 | 1.04 | 1.04 | 86 | 1016.3 |
| 20260903172649 | 24 | 310 | 3.2 | 3.2 | 0.00 | 1.04 | 1.04 | 88 | 1016.7 |
| 20260903172145 | 23 | 300 | 3.2 | 3.2 | 0.00 | 1.04 | 1.04 | 89 | 1016.6 |
| 20260903171644 | 23 | 306 | 0.0 | 0.0 | 0.00 | 1.04 | 1.04 | 89 | 1016.9 |
| 20260903171141 | 23 | 305 | 3.2 | 3.2 | 0.00 | 1.04 | 1.04 | 88 | 1017.1 |
| 20260903170639 | 24 | 294 | 3.2 | 3.2 | 0.00 | 1.04 | 1.04 | 87 | 1016.9 |
| 20260903170135 | 24 | 306 | 3.2 | 3.2 | 0.00 | 1.04 | 1.04 | 87 | 1016.8 |
| 20260903165633 | 24 | 300 | 1.6 | 1.6 | 0.00 | 1.04 | 1.04 | 87 | 1016.9 |
| 20260903165127 | 24 | 283 | 3.2 | 4.8 | 0.00 | 1.04 | 1.04 | 86 | 1016.8 |
| 20260903164616 | 23 | 261 | 4.8 | 4.8 | 0.00 | 1.04 | 1.04 | 89 | 1016.9 |
| 20260903164112 | 23 | 283 | 3.2 | 4.8 | 0.00 | 1.04 | 1.04 | 88 | 1016.7 |
| 20260903163607 | 23 | 298 | 1.6 | 1.6 | 0.00 | 1.04 | 1.04 | 88 | 1017.0 |
| 20260903163103 | 23 | 308 | 1.6 | 1.6 | 0.00 | 1.04 | 1.04 | 89 | 1017.0 |
| 20260903162559 | 23 | 310 | 3.2 | 3.2 | 0.00 | 1.04 | 1.04 | 88 | 1017.0 |
| 20260903162055 | 23 | 318 | 1.6 | 1.6 | 0.00 | 1.04 | 1.04 | 90 | 1016.8 |
| 20260903161550 | 23 | 284 | 3.2 | 6.4 | 0.00 | 1.04 | 1.04 | 90 | 1016.8 |
| 20260903161046 | 22 | 297 | 3.2 | 4.8 | 0.00 | 1.04 | 1.04 | 91 | 1017.0 |
| 20260903160545 | 22 | 296 | 1.6 | 3.2 | 0.00 | 1.04 | 1.04 | 91 | 1016.9 |
| 20260903160039 | 23 | 301 | 3.2 | 4.8 | 0.00 | 1.04 | 1.04 | 91 | 1017.1 |
| 20260903155538 | 23 | 311 | 0.0 | 1.6 | 0.00 | 1.04 | 1.04 | 91 | 1017.0 |
| 20260903155034 | 22 | 295 | 1.6 | 3.2 | 0.00 | 1.04 | 1.04 | 92 | 1017.4 |
| 20260903154530 | 22 | 270 | 3.2 | 3.2 | 0.00 | 1.04 | 1.04 | 93 | 1017.4 |
| 20260903154026 | 22 | 310 | 3.2 | 3.2 | 0.00 | 1.04 | 1.04 | 92 | 1017.2 |
| 20260903153521 | 22 | 305 | 3.2 | 3.2 | 0.00 | 1.04 | 1.04 | 93 | 1017.3 |
| 20260903153017 | 21 | 295 | 3.2 | 3.2 | 0.00 | 1.04 | 1.04 | 95 | 1017.4 |
| 20260903152512 | 21 | 304 | 1.6 | 3.2 | 0.00 | 1.04 | 1.04 | 97 | 1017.3 |
| 20260903152009 | 21 | 320 | 1.6 | 1.6 | 0.00 | 1.04 | 1.04 | 96 | 1017.5 |
| 20260903151507 | 21 | 308 | 1.6 | 1.6 | 0.00 | 1.04 | 1.04 | 98 | 1017.5 |
| 20260903151002 | 21 | 310 | 0.0 | 0.0 | 0.00 | 1.04 | 1.04 | 99 | 1017.6 |
| 20260903150457 | 21 | 320 | 1.6 | 1.6 | 0.00 | 1.04 | 1.04 | 99 | 1017.6 |
| 20260903145952 | 20 | 309 | 0.0 | 1.6 | 0.00 | 1.04 | 1.04 | 99 | 1017.6 |
| 20260903145447 | 20 | 319 | 3.2 | 3.2 | 0.00 | 1.04 | 1.04 | 99 | 1017.3 |
| 20260903144942 | 20 | 291 | 3.2 | 3.2 | 0.00 | 1.04 | 1.04 | 99 | 1017.5 |
| 20260903144441 | 20 | 314 | 0.0 | 1.6 | 0.00 | 1.04 | 1.04 | 99 | 1017.5 |
| 20260903143937 | 20 | 307 | 1.6 | 1.6 | 0.00 | 1.04 | 1.04 | 99 | 1017.7 |
| 20260903143434 | 20 | 312 | 1.6 | 1.6 | 0.00 | 1.04 | 1.04 | 99 | 1017.8 |
| 20260903142929 | 20 | 317 | 1.6 | 1.6 | 0.00 | 1.04 | 1.04 | 99 | 1017.7 |
| 20260903142424 | 20 | 318 | 0.0 | 0.0 | 0.00 | 1.04 | 1.04 | 99 | 1017.7 |
| 20260903141920 | 20 | 290 | 3.2 | 3.2 | 0.00 | 1.04 | 1.04 | 99 | 1017.8 |
| 20260903141410 | 20 | 296 | 3.2 | 3.2 | 0.00 | 1.04 | 1.04 | 99 | 1017.6 |
| 20260903140906 | 20 | 317 | 0.0 | 0.0 | 0.00 | 1.04 | 1.04 | 99 | 1017.7 |
| 20260903140401 | 20 | 303 | 0.0 | 0.0 | 0.00 | 1.04 | 1.04 | 99 | 1017.3 |
| 20260903135856 | 20 | 311 | 1.6 | 1.6 | 0.00 | 1.04 | 1.04 | 99 | 1017.6 |
| 20260903135352 | 20 | 323 | 0.0 | 0.0 | 0.00 | 1.04 | 1.04 | 99 | 1017.6 |
| 20260903134850 | 19 | 314 | 0.0 | 0.0 | 0.00 | 1.04 | 1.04 | 99 | 1017.5 |
| 20260903134346 | 19 | 321 | 0.0 | 0.0 | 0.00 | 1.04 | 1.04 | 99 | 1017.4 |
| 20260903133843 | 19 | 315 | 0.0 | 0.0 | 0.00 | 1.04 | 1.04 | 99 | 1017.8 |
| 20260903133340 | 19 | 321 | 0.0 | 0.0 | 0.00 | 1.04 | 1.04 | 99 | 1017.7 |
| 20260903132834 | 19 | 319 | 0.0 | 0.0 | 0.00 | 1.04 | 1.04 | 99 | 1017.9 |
| 20260903132330 | 18 | 318 | 0.0 | 0.0 | 0.00 | 1.04 | 1.04 | 99 | 1017.7 |
| 20260903131825 | 19 | 321 | 0.0 | 0.0 | 0.00 | 1.04 | 1.04 | 99 | 1017.6 |
| 20260903131324 | 19 | 312 | 0.0 | 0.0 | 0.00 | 1.04 | 1.04 | 99 | 1017.7 |
| 20260903130823 | 19 | 316 | 0.0 | 0.0 | 0.00 | 1.04 | 1.04 | 99 | 1017.8 |
| 20260903130318 | 19 | 319 | 0.0 | 0.0 | 0.00 | 1.04 | 1.04 | 99 | 1017.8 |
| 20260903125817 | 19 | 317 | 0.0 | 0.0 | 0.00 | 1.04 | 1.04 | 99 | 1017.7 |
| 20260903125313 | 19 | 324 | 0.0 | 0.0 | 0.00 | 1.04 | 1.04 | 99 | 1018.1 |
| 20260903124812 | 18 | 319 | 0.0 | 0.0 | 0.00 | 1.04 | 1.04 | 99 | 1018.2 |
| 20260903124308 | 18 | 321 | 0.0 | 0.0 | 0.00 | 1.04 | 1.04 | 99 | 1018.1 |
| 20260903123806 | 18 | 324 | 0.0 | 0.0 | 0.00 | 1.04 | 1.04 | 99 | 1018.1 |
| 20260903123306 | 18 | 317 | 0.0 | 0.0 | 0.00 | 1.04 | 1.04 | 99 | 1018.0 |
| 20260903122804 | 18 | 326 | 0.0 | 0.0 | 0.00 | 1.04 | 1.04 | 99 | 1018.2 |
| 20260903122259 | 18 | 324 | 0.0 | 0.0 | 0.00 | 1.04 | 1.04 | 99 | 1018.0 |
| 20260903121757 | 18 | 322 | 0.0 | 0.0 | 0.00 | 1.04 | 1.04 | 99 | 1018.0 |
| 20260903121253 | 18 | 322 | 0.0 | 0.0 | 0.00 | 1.04 | 1.04 | 99 | 1018.1 |
| 20260903120749 | 18 | 323 | 0.0 | 0.0 | 0.00 | 1.04 | 1.04 | 99 | 1018.1 |
| 20260903120242 | 18 | 324 | 0.0 | 0.0 | 0.00 | 1.04 | 1.04 | 99 | 1018.2 |
| 20260903115740 | 18 | 325 | 0.0 | 0.0 | 0.00 | 1.04 | 1.04 | 99 | 1018.3 |
| 20260903115236 | 18 | 320 | 0.0 | 0.0 | 0.00 | 1.04 | 1.04 | 99 | 1018.5 |
| 20260903114730 | 18 | 327 | 0.0 | 0.0 | 0.00 | 1.04 | 1.04 | 99 | 1018.7 |
| 20260903114226 | 18 | 335 | 0.0 | 0.0 | 0.00 | 1.04 | 1.04 | 99 | 1018.4 |
| 20260903113721 | 18 | 321 | 0.0 | 0.0 | 0.00 | 1.04 | 1.04 | 99 | 1018.7 |
| 20260903113217 | 18 | 323 | 0.0 | 0.0 | 0.00 | 1.04 | 1.04 | 99 | 1018.7 |
| 20260903112713 | 18 | 324 | 0.0 | 0.0 | 0.00 | 1.04 | 1.04 | 99 | 1018.5 |
| 20260903112208 | 18 | 326 | 0.0 | 0.0 | 0.00 | 1.04 | 1.04 | 99 | 1018.7 |
| 20260903111706 | 18 | 328 | 0.0 | 0.0 | 0.00 | 1.04 | 1.04 | 99 | 1018.8 |
| 20260903111202 | 18 | 324 | 0.0 | 0.0 | 0.00 | 1.04 | 1.04 | 99 | 1018.4 |
| 20260903110653 | 18 | 319 | 0.0 | 0.0 | 0.00 | 1.04 | 1.04 | 99 | 1018.7 |
| 20260903110148 | 18 | 326 | 0.0 | 0.0 | 0.00 | 1.04 | 1.04 | 99 | 1018.3 |
| 20260903105642 | 18 | 334 | 0.0 | 0.0 | 0.00 | 1.04 | 1.04 | 99 | 1018.5 |
| 20260903105138 | 18 | 325 | 0.0 | 0.0 | 0.00 | 1.04 | 1.04 | 99 | 1018.4 |
| 20260903104637 | 18 | 319 | 0.0 | 0.0 | 0.00 | 1.04 | 1.04 | 99 | 1018.5 |
| 20260903104133 | 18 | 319 | 0.0 | 0.0 | 0.13 | 1.04 | 1.04 | 99 | 1018.7 |
| 20260903103628 | 18 | 318 | 0.0 | 0.0 | 0.13 | 1.04 | 1.04 | 99 | 1018.4 |
| 20260903103125 | 18 | 320 | 0.0 | 0.0 | 0.00 | 1.02 | 1.02 | 99 | 1018.4 |
| 20260903102620 | 18 | 329 | 0.0 | 0.0 | 0.00 | 1.02 | 1.02 | 99 | 1018.5 |
| 20260903102119 | 18 | 315 | 0.0 | 0.0 | 0.00 | 1.02 | 1.02 | 99 | 1018.3 |
| 20260903101618 | 18 | 305 | 0.0 | 0.0 | 0.00 | 1.02 | 1.02 | 99 | 1018.1 |
| 20260903101114 | 18 | 318 | 0.0 | 0.0 | 0.00 | 1.02 | 1.02 | 99 | 1018.1 |
| 20260903100609 | 18 | 318 | 0.0 | 0.0 | 0.00 | 1.02 | 1.02 | 99 | 1018.0 |
| 20260903100108 | 18 | 317 | 0.0 | 0.0 | 0.00 | 1.02 | 1.02 | 99 | 1017.8 |
| 20260903095606 | 18 | 317 | 0.0 | 0.0 | 0.00 | 1.02 | 1.02 | 99 | 1017.9 |
| 20260903095106 | 18 | 318 | 0.0 | 0.0 | 0.00 | 1.02 | 1.02 | 99 | 1017.9 |
| 20260903094606 | 18 | 313 | 0.0 | 0.0 | 0.00 | 1.02 | 1.02 | 99 | 1017.8 |
| 20260903094102 | 18 | 316 | 0.0 | 0.0 | 0.00 | 1.02 | 1.02 | 99 | 1018.0 |
| 20260903093556 | 18 | 317 | 0.0 | 0.0 | 0.00 | 1.02 | 1.02 | 99 | 1017.8 |
| 20260903093052 | 18 | 315 | 0.0 | 0.0 | 0.00 | 1.02 | 1.02 | 99 | 1018.0 |
| 20260903092551 | 18 | 315 | 0.0 | 0.0 | 0.00 | 1.02 | 1.02 | 99 | 1017.9 |
| 20260903092046 | 18 | 320 | 0.0 | 0.0 | 0.00 | 1.02 | 1.02 | 99 | 1018.0 |
| 20260903091544 | 18 | 323 | 0.0 | 0.0 | 0.00 | 1.02 | 1.02 | 99 | 1017.9 |
| 20260903091039 | 18 | 321 | 0.0 | 0.0 | 0.00 | 1.02 | 1.02 | 99 | 1018.1 |
| 20260903090535 | 18 | 319 | 0.0 | 0.0 | 0.00 | 1.02 | 1.02 | 99 | 1018.1 |
| 20260903090033 | 18 | 323 | 0.0 | 0.0 | 0.00 | 1.02 | 1.02 | 99 | 1018.2 |
| 20260903085532 | 18 | 318 | 0.0 | 0.0 | 0.00 | 1.02 | 1.02 | 99 | 1018.2 |
| 20260903085028 | 18 | 319 | 0.0 | 0.0 | 0.00 | 1.02 | 1.02 | 99 | 1018.0 |
| 20260903084526 | 18 | 325 | 0.0 | 0.0 | 0.00 | 1.02 | 1.02 | 99 | 1018.0 |
| 20260903084021 | 18 | 314 | 0.0 | 0.0 | 0.00 | 1.02 | 1.02 | 99 | 1017.8 |
| 20260903083517 | 18 | 319 | 0.0 | 0.0 | 0.00 | 1.02 | 1.02 | 99 | 1018.2 |
| 20260903083016 | 18 | 319 | 0.0 | 0.0 | 0.00 | 1.02 | 1.02 | 99 | 1018.2 |
| 20260903082511 | 18 | 319 | 0.0 | 0.0 | 0.00 | 1.02 | 1.02 | 99 | 1018.1 |
| 20260903082006 | 18 | 321 | 0.0 | 0.0 | 0.00 | 1.02 | 1.02 | 99 | 1018.0 |
| 20260903081501 | 17 | 330 | 0.0 | 0.0 | 0.00 | 1.02 | 1.02 | 99 | 1018.3 |
| 20260903080957 | 17 | 316 | 0.0 | 1.6 | 0.00 | 1.02 | 1.02 | 99 | 1018.1 |
| 20260903080453 | 17 | 328 | 0.0 | 0.0 | 0.00 | 1.02 | 1.02 | 99 | 1018.4 |
| 20260903075949 | 17 | 322 | 0.0 | 0.0 | 0.00 | 1.02 | 1.02 | 99 | 1018.3 |
| 20260903075444 | 17 | 290 | 0.0 | 1.6 | 0.00 | 1.02 | 1.02 | 99 | 1018.5 |
| 20260903074940 | 17 | 324 | 0.0 | 0.0 | 0.00 | 1.02 | 1.02 | 99 | 1018.3 |
| 20260903074438 | 17 | 334 | 0.0 | 1.6 | 0.18 | 1.02 | 1.02 | 99 | 1018.2 |
| 20260903073934 | 17 | 26 | 1.6 | 3.2 | 0.18 | 1.02 | 1.02 | 99 | 1018.4 |
| 20260903073429 | 17 | 326 | 0.0 | 0.0 | 0.00 | 0.99 | 0.99 | 99 | 1018.7 |
| 20260903072925 | 17 | 324 | 0.0 | 0.0 | 0.00 | 0.99 | 0.99 | 99 | 1018.9 |
| 20260903072421 | 17 | 319 | 0.0 | 0.0 | 0.00 | 0.99 | 0.99 | 99 | 1018.9 |
| 20260903071917 | 17 | 322 | 0.0 | 0.0 | 0.00 | 0.99 | 0.99 | 99 | 1019.1 |
| 20260903071413 | 17 | 322 | 0.0 | 0.0 | 0.00 | 0.99 | 0.99 | 99 | 1019.1 |
| 20260903070909 | 17 | 319 | 0.0 | 0.0 | 0.00 | 0.99 | 0.99 | 99 | 1018.8 |
| 20260903070403 | 17 | 333 | 0.0 | 0.0 | 0.00 | 0.99 | 0.99 | 99 | 1018.9 |
| 20260903065858 | 17 | 324 | 0.0 | 0.0 | 0.00 | 0.99 | 0.99 | 99 | 1018.9 |
| 20260903065357 | 17 | 315 | 0.0 | 1.6 | 0.00 | 0.99 | 0.99 | 99 | 1018.9 |
| 20260903064856 | 17 | 353 | 0.0 | 0.0 | 0.00 | 0.99 | 0.99 | 99 | 1018.9 |
| 20260903064352 | 17 | 319 | 0.0 | 0.0 | 0.00 | 0.99 | 0.99 | 99 | 1019.0 |
| 20260903063848 | 17 | 318 | 0.0 | 0.0 | 0.00 | 0.99 | 0.99 | 99 | 1019.1 |
| 20260903063343 | 17 | 336 | 0.0 | 0.0 | 0.00 | 0.99 | 0.99 | 99 | 1018.8 |
| 20260903062838 | 17 | 82 | 1.6 | 3.2 | 0.00 | 0.99 | 0.99 | 99 | 1018.4 |
| 20260903062338 | 17 | 328 | 0.0 | 0.0 | 0.00 | 0.99 | 0.99 | 99 | 1018.7 |
| 20260903061834 | 17 | 318 | 0.0 | 0.0 | 0.00 | 0.99 | 0.99 | 99 | 1018.5 |
| 20260903061333 | 17 | 314 | 0.0 | 0.0 | 0.00 | 0.99 | 0.99 | 99 | 1019.0 |
| 20260903060829 | 17 | 310 | 0.0 | 0.0 | 0.00 | 0.99 | 0.99 | 99 | 1018.9 |
| 20260903060323 | 17 | 327 | 0.0 | 0.0 | 0.00 | 0.99 | 0.99 | 99 | 1019.2 |
| 20260903055821 | 17 | 317 | 0.0 | 0.0 | 0.00 | 0.99 | 0.99 | 99 | 1019.2 |
| 20260903055319 | 17 | 321 | 0.0 | 0.0 | 0.13 | 0.99 | 0.99 | 99 | 1019.6 |
| 20260903054814 | 17 | 348 | 0.0 | 0.0 | 0.13 | 0.99 | 0.99 | 99 | 1019.6 |
| 20260903054308 | 17 | 332 | 0.0 | 0.0 | 0.18 | 0.97 | 0.97 | 99 | 1020.1 |
| 20260903053805 | 17 | 318 | 0.0 | 0.0 | 0.36 | 0.97 | 0.97 | 99 | 1020.1 |
| 20260903053301 | 17 | 319 | 0.0 | 0.0 | 0.30 | 0.94 | 0.94 | 99 | 1019.9 |
| 20260903052755 | 17 | 41 | 3.2 | 4.8 | 0.43 | 0.91 | 0.91 | 99 | 1019.9 |
| 20260903052251 | 17 | 338 | 0.0 | 0.0 | 0.61 | 0.89 | 0.89 | 99 | 1020.2 |
| 20260903051746 | 17 | 331 | 0.0 | 0.0 | 0.61 | 0.84 | 0.84 | 99 | 1020.5 |
| 20260903051241 | 17 | 326 | 0.0 | 0.0 | 0.97 | 0.79 | 0.79 | 99 | 1021.0 |
| 20260903050736 | 17 | 351 | 1.6 | 3.2 | 0.97 | 0.74 | 0.74 | 99 | 1021.0 |
| 20260903050231 | 17 | 322 | 0.0 | 0.0 | 1.19 | 0.66 | 0.66 | 99 | 1021.3 |
| 20260903045726 | 17 | 325 | 0.0 | 0.0 | 2.29 | 0.58 | 0.58 | 99 | 1021.6 |
| 20260903045222 | 17 | 323 | 0.0 | 0.0 | 2.39 | 0.43 | 0.43 | 99 | 1022.0 |
| 20260903044718 | 17 | 320 | 0.0 | 0.0 | 1.50 | 0.25 | 0.25 | 99 | 1021.8 |
| 20260903044213 | 17 | 307 | 0.0 | 1.6 | 0.30 | 0.05 | 0.05 | 99 | 1022.2 |
| 20260903043710 | 17 | 307 | 1.6 | 3.2 | 0.00 | 0.00 | 0.00 | 99 | 1022.0 |
| 20260903043209 | 17 | 315 | 0.0 | 0.0 | 0.00 | 0.00 | 0.00 | 99 | 1021.5 |
| 20260903042708 | 17 | 323 | 0.0 | 0.0 | 0.00 | 0.00 | 0.00 | 99 | 1021.1 |